Time,TemperatureF,DewpointF,PressureIn,WindDirection,WindDirectionDegrees,WindSpeedMPH,WindSpeedGustMPH,Humidity,HourlyPrecipIn,Conditions,Clouds,dailyrainin,SoftwareType,DateUTC
2013-02-12 00:01:00,24.0,20.0,-100.00,WNW,300,5.0,8.0,85,-99.99,,,-99.99,,2013-02-12 05:01:00,
2013-02-12 00:11:00,24.0,20.0,-100.00,WNW,300,5.0,8.0,85,-99.99,,,-99.99,,2013-02-12 05:11:00,
2013-02-12 00:21:00,24.0,20.0,-100.00,WNW,290,4.0,7.0,87,-99.99,,,-99.99,,2013-02-12 05:21:00,
2013-02-12 00:32:00,23.0,20.0,-100.00,WNW,290,5.0,8.0,88,-99.99,,,-99.99,,2013-02-12 05:32:00,
2013-02-12 00:42:00,23.0,20.0,-100.00,WNW,290,5.0,8.0,88,-99.99,,,-99.99,,2013-02-12 05:42:00,
2013-02-12 00:52:00,23.0,20.0,-100.00,West,275,4.0,6.0,89,-99.99,,,-99.99,,2013-02-12 05:52:00,
2013-02-12 01:01:00,23.0,21.0,-100.00,West,270,6.0,7.0,90,-99.99,,,-99.99,,2013-02-12 06:01:00,
2013-02-12 01:12:00,23.0,21.0,-100.00,West,270,6.0,7.0,90,-99.99,,,-99.99,,2013-02-12 06:12:00,
2013-02-12 01:21:00,23.0,21.0,-100.00,WNW,285,4.0,6.0,90,-99.99,,,-99.99,,2013-02-12 06:21:00,
2013-02-12 01:32:00,24.0,21.0,-100.00,West,275,4.0,5.0,90,-99.99,,,-99.99,,2013-02-12 06:32:00,
2013-02-12 01:42:00,24.0,21.0,-100.00,West,275,4.0,5.0,90,-99.99,,,-99.99,,2013-02-12 06:42:00,
2013-02-12 01:51:00,24.0,21.0,-100.00,NW,320,3.0,4.0,90,-99.99,,,-99.99,,2013-02-12 06:51:00,
2013-02-12 02:01:00,24.0,22.0,-100.00,NW,315,4.0,6.0,90,-99.99,,,-99.99,,2013-02-12 07:01:00,
2013-02-12 02:11:00,24.0,22.0,-100.00,NW,315,4.0,6.0,90,-99.99,,,-99.99,,2013-02-12 07:11:00,
2013-02-12 02:21:00,25.0,22.0,-100.00,NW,310,5.0,9.0,88,-99.99,,,-99.99,,2013-02-12 07:21:00,
2013-02-12 02:31:00,25.0,22.0,-100.00,NW,305,7.0,10.0,86,-99.99,,,-99.99,,2013-02-12 07:31:00,
2013-02-12 02:42:00,25.0,22.0,-100.00,NW,305,7.0,10.0,86,-99.99,,,-99.99,,2013-02-12 07:42:00,
2013-02-12 02:51:00,26.0,22.0,-100.00,NNW,340,7.0,11.0,85,-99.99,,,-99.99,,2013-02-12 07:51:00,
2013-02-12 03:01:00,26.0,22.0,-100.00,NNW,340,5.0,11.0,84,-99.99,,,-99.99,,2013-02-12 08:01:00,
2013-02-12 03:11:00,26.0,22.0,-100.00,NNW,340,5.0,11.0,84,-99.99,,,-99.99,,2013-02-12 08:11:00,
2013-02-12 03:21:00,26.0,22.0,-100.00,NW,320,6.0,10.0,84,-99.99,,,-99.99,,2013-02-12 08:21:00,
2013-02-12 03:32:00,26.0,22.0,-100.00,NNW,335,4.0,11.0,84,-99.99,,,-99.99,,2013-02-12 08:32:00,
2013-02-12 03:41:00,26.0,22.0,-100.00,NNW,335,4.0,11.0,84,-99.99,,,-99.99,,2013-02-12 08:41:00,
2013-02-12 03:50:00,25.0,21.0,-100.00,NW,310,4.0,6.0,86,-99.99,,,-99.99,,2013-02-12 08:50:00,
2013-02-12 03:52:00,26.0,21.0,-100.00,NNW,330,4.0,13.0,84,-99.99,,,-99.99,,2013-02-12 08:52:00,
2013-02-12 04:01:00,25.0,21.0,-100.00,NW,315,4.0,9.0,85,-99.99,,,-99.99,,2013-02-12 09:01:00,
2013-02-12 04:11:00,25.0,21.0,-100.00,NW,315,4.0,9.0,85,-99.99,,,-99.99,,2013-02-12 09:11:00,
2013-02-12 04:20:00,24.0,21.0,-100.00,NW,315,4.0,7.0,88,-99.99,,,-99.99,,2013-02-12 09:20:00,
2013-02-12 04:21:00,25.0,21.0,-100.00,NW,320,4.0,8.0,86,-99.99,,,-99.99,,2013-02-12 09:21:00,
2013-02-12 04:32:00,25.0,21.0,-100.00,NW,310,4.0,6.0,86,-99.99,,,-99.99,,2013-02-12 09:32:00,
2013-02-12 04:42:00,25.0,21.0,-100.00,NW,310,4.0,6.0,86,-99.99,,,-99.99,,2013-02-12 09:42:00,
2013-02-12 05:01:00,24.0,21.0,-100.00,NW,315,4.0,7.0,88,-99.99,,,-99.99,,2013-02-12 10:01:00,
2013-02-12 05:11:00,24.0,21.0,-100.00,NW,315,4.0,7.0,88,-99.99,,,-99.99,,2013-02-12 10:11:00,
2013-02-12 08:52:00,22.0,20.0,-100.00,SSW,205,1.0,2.0,93,-99.99,,,-99.99,,2013-02-12 13:52:00,
2013-02-12 09:01:00,22.0,20.0,-100.00,SW,220,2.0,4.0,93,-99.99,,,-99.99,,2013-02-12 14:01:00,
2013-02-12 09:12:00,22.0,20.0,-100.00,SW,220,2.0,4.0,93,-99.99,,,-99.99,,2013-02-12 14:12:00,
2013-02-12 09:21:00,22.0,21.0,-100.00,WSW,245,1.0,2.0,93,-99.99,,,-99.99,,2013-02-12 14:21:00,
2013-02-12 09:32:00,23.0,21.0,-100.00,WSW,240,4.0,6.0,93,-99.99,,,-99.99,,2013-02-12 14:32:00,
2013-02-12 09:42:00,23.0,21.0,-100.00,WSW,240,4.0,6.0,93,-99.99,,,-99.99,,2013-02-12 14:42:00,
2013-02-12 09:52:00,24.0,22.0,-100.00,WSW,250,4.0,7.0,92,-99.99,,,-99.99,,2013-02-12 14:52:00,
2013-02-12 10:02:00,24.0,22.0,-100.00,West,270,4.0,6.0,91,-99.99,,,-99.99,,2013-02-12 15:02:00,
2013-02-12 10:11:00,24.0,22.0,-100.00,West,270,4.0,6.0,91,-99.99,,,-99.99,,2013-02-12 15:11:00,
2013-02-12 10:21:00,25.0,22.0,-100.00,West,280,5.0,10.0,88,-99.99,,,-99.99,,2013-02-12 15:21:00,
2013-02-12 10:32:00,26.0,22.0,-100.00,West,275,6.0,9.0,86,-99.99,,,-99.99,,2013-02-12 15:32:00,
2013-02-12 10:42:00,26.0,22.0,-100.00,West,275,6.0,9.0,86,-99.99,,,-99.99,,2013-02-12 15:42:00,
2013-02-12 10:52:00,26.0,22.0,-100.00,West,280,4.0,9.0,86,-99.99,,,-99.99,,2013-02-12 15:52:00,
2013-02-12 11:01:00,26.0,22.0,-100.00,West,270,5.0,9.0,86,-99.99,,,-99.99,,2013-02-12 16:01:00,
2013-02-12 11:11:00,26.0,22.0,-100.00,West,270,5.0,9.0,86,-99.99,,,-99.99,,2013-02-12 16:11:00,
2013-02-12 11:51:00,28.0,20.0,-100.00,West,275,8.0,13.0,74,-99.99,,,-99.99,,2013-02-12 16:51:00,
2013-02-12 12:01:00,28.0,20.0,-100.00,West,275,8.0,13.0,74,-99.99,,,-99.99,,2013-02-12 17:01:00,
2013-02-12 12:12:00,28.0,20.0,-100.00,West,275,8.0,13.0,74,-99.99,,,-99.99,,2013-02-12 17:12:00,
2013-02-12 12:21:00,28.0,20.0,-100.00,West,280,6.0,10.0,72,-99.99,,,-99.99,,2013-02-12 17:21:00,
2013-02-12 12:32:00,28.0,20.0,-100.00,West,260,7.0,11.0,71,-99.99,,,-99.99,,2013-02-12 17:32:00,
2013-02-12 12:42:00,28.0,20.0,-100.00,West,260,7.0,11.0,71,-99.99,,,-99.99,,2013-02-12 17:42:00,
2013-02-12 12:52:00,28.0,20.0,-100.00,West,275,9.0,14.0,73,-99.99,,,-99.99,,2013-02-12 17:52:00,
2013-02-12 13:01:00,28.0,21.0,-100.00,WNW,285,8.0,12.0,74,-99.99,,,-99.99,,2013-02-12 18:01:00,
2013-02-12 13:11:00,28.0,21.0,-100.00,WNW,285,8.0,12.0,74,-99.99,,,-99.99,,2013-02-12 18:11:00,
2013-02-12 13:23:00,28.0,19.0,-100.00,West,280,11.0,14.0,68,-99.99,,,-99.99,,2013-02-12 18:23:00,
2013-02-12 13:32:00,28.0,20.0,-100.00,West,265,8.0,14.0,72,-99.99,,,-99.99,,2013-02-12 18:32:00,
2013-02-12 13:41:00,28.0,20.0,-100.00,West,265,8.0,14.0,72,-99.99,,,-99.99,,2013-02-12 18:41:00,
2013-02-12 13:51:00,28.0,19.0,-100.00,West,260,7.0,15.0,68,-99.99,,,-99.99,,2013-02-12 18:51:00,
2013-02-12 14:02:00,28.0,19.0,-100.00,West,280,8.0,14.0,70,-99.99,,,-99.99,,2013-02-12 19:02:00,
2013-02-12 14:11:00,28.0,19.0,-100.00,West,280,8.0,14.0,70,-99.99,,,-99.99,,2013-02-12 19:11:00,
2013-02-12 14:21:00,28.0,20.0,-100.00,WNW,285,9.0,14.0,72,-99.99,,,-99.99,,2013-02-12 19:21:00,
2013-02-12 14:31:00,28.0,19.0,-100.00,WSW,255,8.0,15.0,69,-99.99,,,-99.99,,2013-02-12 19:31:00,
2013-02-12 14:41:00,28.0,19.0,-100.00,WSW,255,8.0,15.0,69,-99.99,,,-99.99,,2013-02-12 19:41:00,
2013-02-12 14:51:00,28.0,21.0,-100.00,WSW,250,4.0,14.0,73,-99.99,,,-99.99,,2013-02-12 19:51:00,
2013-02-12 15:01:00,28.0,19.0,-100.00,WSW,250,10.0,16.0,68,-99.99,,,-99.99,,2013-02-12 20:01:00,
2013-02-12 15:11:00,28.0,19.0,-100.00,WSW,250,10.0,16.0,68,-99.99,,,-99.99,,2013-02-12 20:11:00,
2013-02-12 15:21:00,28.0,20.0,-100.00,West,265,6.0,13.0,71,-99.99,,,-99.99,,2013-02-12 20:21:00,
2013-02-12 15:32:00,28.0,20.0,-100.00,West,265,6.0,13.0,71,-99.99,,,-99.99,,2013-02-12 20:32:00,
2013-02-12 15:52:00,28.0,19.0,-100.00,West,270,11.0,14.0,68,-99.99,,,-99.99,,2013-02-12 20:52:00,
2013-02-12 16:01:00,29.0,20.0,-100.00,WSW,255,7.0,16.0,68,-99.99,,,-99.99,,2013-02-12 21:01:00,
2013-02-12 16:11:00,29.0,20.0,-100.00,WSW,255,7.0,16.0,68,-99.99,,,-99.99,,2013-02-12 21:11:00,
2013-02-12 16:21:00,29.0,20.0,-100.00,SW,235,11.0,15.0,68,-99.99,,,-99.99,,2013-02-12 21:21:00,
2013-02-12 16:31:00,30.0,20.0,-100.00,WSW,240,7.0,17.0,66,-99.99,,,-99.99,,2013-02-12 21:31:00,
2013-02-12 16:42:00,30.0,20.0,-100.00,WSW,240,7.0,17.0,66,-99.99,,,-99.99,,2013-02-12 21:42:00,
2013-02-12 16:51:00,31.0,20.0,-100.00,WSW,250,10.0,15.0,65,-99.99,,,-99.99,,2013-02-12 21:51:00,
2013-02-12 17:01:00,30.0,20.0,-100.00,West,275,9.0,14.0,66,-99.99,,,-99.99,,2013-02-12 22:01:00,
2013-02-12 17:12:00,30.0,20.0,-100.00,West,275,9.0,14.0,66,-99.99,,,-99.99,,2013-02-12 22:12:00,
2013-02-12 17:21:00,30.0,21.0,-100.00,West,270,11.0,15.0,67,-99.99,,,-99.99,,2013-02-12 22:21:00,
2013-02-12 17:32:00,31.0,21.0,-100.00,West,270,11.0,18.0,68,-99.99,,,-99.99,,2013-02-12 22:32:00,
2013-02-12 17:42:00,31.0,21.0,-100.00,West,270,11.0,18.0,68,-99.99,,,-99.99,,2013-02-12 22:42:00,
2013-02-12 17:51:00,31.0,21.0,-100.00,West,275,8.0,13.0,67,-99.99,,,-99.99,,2013-02-12 22:51:00,
2013-02-12 18:01:00,30.0,21.0,-100.00,West,260,7.0,14.0,69,-99.99,,,-99.99,,2013-02-12 23:01:00,
2013-02-12 18:11:00,30.0,21.0,-100.00,West,260,7.0,14.0,69,-99.99,,,-99.99,,2013-02-12 23:11:00,
2013-02-12 18:21:00,30.0,22.0,-100.00,WSW,250,8.0,15.0,71,-99.99,,,-99.99,,2013-02-12 23:21:00,
2013-02-12 18:32:00,29.0,21.0,-100.00,West,260,10.0,16.0,73,-99.99,,,-99.99,,2013-02-12 23:32:00,
2013-02-12 18:42:00,29.0,21.0,-100.00,West,260,10.0,16.0,73,-99.99,,,-99.99,,2013-02-12 23:42:00,
2013-02-12 18:52:00,28.0,21.0,-100.00,WSW,255,6.0,13.0,75,-99.99,,,-99.99,,2013-02-12 23:52:00,
2013-02-12 19:02:00,28.0,21.0,-100.00,West,260,7.0,13.0,77,-99.99,,,-99.99,,2013-02-13 00:02:00,
2013-02-12 19:11:00,28.0,21.0,-100.00,West,260,7.0,13.0,77,-99.99,,,-99.99,,2013-02-13 00:11:00,
2013-02-12 19:21:00,27.0,21.0,-100.00,SW,230,5.0,9.0,79,-99.99,,,-99.99,,2013-02-13 00:21:00,
2013-02-12 19:32:00,26.0,21.0,-100.00,SW,235,6.0,9.0,81,-99.99,,,-99.99,,2013-02-13 00:32:00,
2013-02-12 19:42:00,26.0,21.0,-100.00,SW,235,6.0,9.0,81,-99.99,,,-99.99,,2013-02-13 00:42:00,
2013-02-12 19:52:00,26.0,21.0,-100.00,WSW,245,6.0,9.0,83,-99.99,,,-99.99,,2013-02-13 00:52:00,
2013-02-12 20:01:00,25.0,21.0,-100.00,SW,235,4.0,9.0,83,-99.99,,,-99.99,,2013-02-13 01:01:00,
2013-02-12 20:11:00,25.0,21.0,-100.00,SW,235,4.0,9.0,83,-99.99,,,-99.99,,2013-02-13 01:11:00,
2013-02-12 20:21:00,25.0,21.0,-100.00,WSW,240,5.0,9.0,85,-99.99,,,-99.99,,2013-02-13 01:21:00,
2013-02-12 20:31:00,25.0,21.0,-100.00,WSW,255,3.0,7.0,85,-99.99,,,-99.99,,2013-02-13 01:31:00,
2013-02-12 20:42:00,25.0,21.0,-100.00,WSW,255,3.0,7.0,85,-99.99,,,-99.99,,2013-02-13 01:42:00,
2013-02-12 20:51:00,26.0,22.0,-100.00,WSW,255,4.0,11.0,85,-99.99,,,-99.99,,2013-02-13 01:51:00,
2013-02-12 21:01:00,26.0,22.0,-100.00,WSW,255,4.0,11.0,85,-99.99,,,-99.99,,2013-02-13 02:01:00,
2013-02-12 21:11:00,26.0,22.0,-100.00,WSW,255,4.0,11.0,85,-99.99,,,-99.99,,2013-02-13 02:11:00,
2013-02-12 21:22:00,26.0,22.0,-100.00,SW,235,5.0,11.0,85,-99.99,,,-99.99,,2013-02-13 02:22:00,
2013-02-12 21:31:00,26.0,23.0,-100.00,WSW,255,7.0,10.0,85,-99.99,,,-99.99,,2013-02-13 02:31:00,
2013-02-12 21:52:00,26.0,23.0,-100.00,WSW,250,6.0,11.0,85,-99.99,,,-99.99,,2013-02-13 02:52:00,
2013-02-12 22:01:00,26.0,23.0,-100.00,WSW,245,5.0,9.0,86,-99.99,,,-99.99,,2013-02-13 03:01:00,
2013-02-12 22:11:00,26.0,23.0,-100.00,WSW,245,5.0,9.0,86,-99.99,,,-99.99,,2013-02-13 03:11:00,
2013-02-12 22:21:00,26.0,22.0,-100.00,WSW,245,5.0,7.0,86,-99.99,,,-99.99,,2013-02-13 03:21:00,
2013-02-12 22:32:00,26.0,22.0,-100.00,WSW,240,5.0,9.0,86,-99.99,,,-99.99,,2013-02-13 03:32:00,
2013-02-12 22:42:00,26.0,22.0,-100.00,WSW,240,5.0,9.0,86,-99.99,,,-99.99,,2013-02-13 03:42:00,
2013-02-12 22:51:00,26.0,23.0,-100.00,WSW,240,4.0,7.0,87,-99.99,,,-99.99,,2013-02-13 03:51:00,
2013-02-12 23:01:00,26.0,23.0,-100.00,SW,235,4.0,6.0,87,-99.99,,,-99.99,,2013-02-13 04:01:00,
2013-02-12 23:11:00,26.0,23.0,-100.00,SW,235,4.0,6.0,87,-99.99,,,-99.99,,2013-02-13 04:11:00,
2013-02-12 23:21:00,26.0,23.0,-100.00,SW,235,5.0,8.0,87,-99.99,,,-99.99,,2013-02-13 04:21:00,
2013-02-12 23:32:00,26.0,23.0,-100.00,WSW,240,4.0,7.0,88,-99.99,,,-99.99,,2013-02-13 04:32:00,
2013-02-12 23:41:00,26.0,23.0,-100.00,WSW,240,4.0,7.0,88,-99.99,,,-99.99,,2013-02-13 04:41:00,
2013-02-12 23:51:00,26.0,23.0,-100.00,WSW,245,4.0,6.0,88,-99.99,,,-99.99,,2013-02-13 04:51:00,